Regional Weather Roundup
Issued by NWS

Home | Current Version | Previous Version | Graphics & Text | Print | Product List | Glossary On
Versions: 1 2 3 4 5 6 7 8 9 10 11 12 13 14 15 16 17 18 19 20 21 22 23 24 25 26 27 28 29 30 31 32 33 34 35 36 37 38 39 40 41 42 43 44 45 46 47 48 49 50
000
ASUS43 KBIS 240410
RWRND

NORTH DAKOTA REGIONAL WEATHER ROUNDUP
NATIONAL WEATHER SERVICE BISMARCK ND
1100 PM CDT TUE SEP 23 2014

NOTE: "FAIR" INDICATES FEW OR NO CLOUDS BELOW 12,000 FEET WITH NO
SIGNIFICANT WEATHER AND/OR OBSTRUCTIONS TO VISIBILITY.


NDZ001>003-009>011-017-240500-
NORTHWEST NORTH DAKOTA

CITY           SKY/WX    TMP DP  RH WIND       PRES   REMARKS
WILLISTON      CLEAR     62  50  64 S3        29.85R
MINOT          CLEAR     58  55  90 SE9       29.89R
MINOT AFB      CLEAR     58  58  99 SE9       29.88R
$$

NDZ018>021-031>035-040>046-240500-
SOUTHWEST NORTH DAKOTA

CITY           SKY/WX    TMP DP  RH WIND       PRES   REMARKS
BISMARCK       CLOUDY    60  57  89 S10       29.95R
DICKINSON      CLEAR     60  55  83 S10       29.90R
GARRISON         N/A     58  57  97 SE7       29.91R
HETTINGER ARPT CLEAR     61  57  87 SE6       29.95R
$$

NDZ004>008-012>016-024-026-027-054-240500-
NORTHEAST NORTH DAKOTA

CITY           SKY/WX    TMP DP  RH WIND       PRES   REMARKS
GRAND FORKS    PTCLDY    57  52  83 S6        30.01R
GRND FRKS AFB  PTCLDY    56  54  92 S7        30.01S
DEVILS LAKE    CLOUDY    61  52  72 S16G23    29.96S
$$

NDZ022-023-025-028>030-036>039-047>053-240500-
SOUTHEAST NORTH DAKOTA

CITY           SKY/WX    TMP DP  RH WIND       PRES   REMARKS
FARGO          CLOUDY    61  54  77 SE15G26   30.02F
JAMESTOWN      CLOUDY    58  55  90 SE10      29.98S
$$




USA.gov is the U.S. government's official web portal to all federal, state and local government web resources and services.